Time,TemperatureF,DewpointF,PressureIn,WindDirection,WindDirectionDegrees,WindSpeedMPH,WindSpeedGustMPH,Humidity,HourlyPrecipIn,Conditions,Clouds,dailyrainin,SoftwareType,DateUTC
2013-03-31 10:02:00,42.0,36.0,-100.00,South,182,3.0,-999.0,78,-99.99,,,0.00,,2013-03-31 17:02:00,
2013-03-31 10:12:00,42.0,36.0,-100.00,South,182,3.0,-999.0,78,-99.99,,,0.00,,2013-03-31 17:12:00,
2013-03-31 10:22:00,42.0,36.0,-100.00,South,182,3.0,-999.0,78,-99.99,,,0.00,,2013-03-31 17:22:00,
2013-03-31 10:32:00,42.0,36.0,-100.00,South,182,3.0,-999.0,78,-99.99,,,0.00,,2013-03-31 17:32:00,
2013-03-31 11:02:00,42.0,36.0,-100.00,NNE,17,2.0,8.0,78,0.00,,,0.00,,2013-03-31 18:02:00,
2013-03-31 11:12:00,42.0,36.0,-100.00,NNE,17,2.0,8.0,78,0.00,,,0.00,,2013-03-31 18:12:00,
2013-03-31 11:22:00,42.0,36.0,-100.00,NNE,17,2.0,8.0,78,0.00,,,0.00,,2013-03-31 18:22:00,
2013-03-31 11:32:00,42.0,36.0,-100.00,NNE,17,2.0,8.0,78,0.00,,,0.00,,2013-03-31 18:32:00,
2013-03-31 12:03:00,44.0,32.0,-100.00,ENE,64,3.0,11.0,62,0.00,,,0.00,,2013-03-31 19:03:00,
2013-03-31 12:12:00,44.0,32.0,-100.00,ENE,64,3.0,11.0,62,0.00,,,0.00,,2013-03-31 19:12:00,
2013-03-31 12:22:00,44.0,32.0,-100.00,ENE,64,3.0,11.0,62,0.00,,,0.00,,2013-03-31 19:22:00,
2013-03-31 12:32:00,44.0,32.0,-100.00,ENE,64,3.0,11.0,62,0.00,,,0.00,,2013-03-31 19:32:00,
2013-03-31 13:02:00,46.0,32.0,-100.00,SSE,150,5.0,16.0,57,0.00,,,0.00,,2013-03-31 20:02:00,
2013-03-31 13:12:00,46.0,32.0,-100.00,SSE,150,5.0,16.0,57,0.00,,,0.00,,2013-03-31 20:12:00,
2013-03-31 13:22:00,46.0,32.0,-100.00,SSE,150,5.0,16.0,57,0.00,,,0.00,,2013-03-31 20:22:00,
2013-03-31 13:32:00,46.0,32.0,-100.00,SSE,150,5.0,16.0,57,0.00,,,0.00,,2013-03-31 20:32:00,
2013-03-31 14:02:00,45.0,29.0,-100.00,North,351,5.0,18.0,53,0.00,,,0.00,,2013-03-31 21:02:00,
2013-03-31 14:12:00,45.0,29.0,-100.00,North,351,5.0,18.0,53,0.00,,,0.00,,2013-03-31 21:12:00,
2013-03-31 14:22:00,45.0,29.0,-100.00,North,351,5.0,18.0,53,0.00,,,0.00,,2013-03-31 21:22:00,
2013-03-31 14:33:00,45.0,29.0,-100.00,North,351,5.0,18.0,53,0.00,,,0.00,,2013-03-31 21:33:00,
2013-03-31 15:03:00,44.0,31.0,-100.00,South,176,6.0,17.0,61,0.00,,,0.00,,2013-03-31 22:03:00,
2013-03-31 15:13:00,44.0,31.0,-100.00,South,176,6.0,17.0,61,0.00,,,0.00,,2013-03-31 22:13:00,
2013-03-31 15:23:00,44.0,31.0,-100.00,South,176,6.0,17.0,61,0.00,,,0.00,,2013-03-31 22:23:00,
2013-03-31 15:32:00,44.0,31.0,-100.00,South,176,6.0,17.0,61,0.00,,,0.00,,2013-03-31 22:32:00,
2013-03-31 16:02:00,39.0,33.0,-100.00,SSE,166,4.0,13.0,80,0.02,,,0.02,,2013-03-31 23:02:00,
2013-03-31 16:12:00,39.0,33.0,-100.00,SSE,166,4.0,13.0,80,0.02,,,0.02,,2013-03-31 23:12:00,
2013-03-31 16:22:00,39.0,33.0,-100.00,SSE,166,4.0,13.0,80,0.02,,,0.02,,2013-03-31 23:22:00,
2013-03-31 16:32:00,39.0,33.0,-100.00,SSE,166,4.0,13.0,80,0.02,,,0.02,,2013-03-31 23:32:00,
2013-03-31 17:02:00,43.0,33.0,-100.00,South,185,2.0,12.0,67,0.00,,,-99.99,,2013-04-01 00:02:00,
2013-03-31 17:12:00,43.0,33.0,-100.00,South,185,2.0,12.0,67,0.00,,,-99.99,,2013-04-01 00:12:00,
2013-03-31 17:22:00,43.0,33.0,-100.00,South,185,2.0,12.0,67,0.00,,,-99.99,,2013-04-01 00:22:00,
2013-03-31 17:31:00,43.0,33.0,-100.00,South,185,2.0,12.0,67,0.00,,,-99.99,,2013-04-01 00:31:00,
2013-03-31 18:03:00,38.0,-99.9,-100.00,North,-999,-999.0,-999.0,-999,0.00,,,0.02,,2013-04-01 01:03:00,
2013-03-31 18:13:00,38.0,-99.9,-100.00,North,-999,-999.0,-999.0,-999,0.00,,,0.02,,2013-04-01 01:13:00,
2013-03-31 18:23:00,38.0,-99.9,-100.00,North,-999,-999.0,-999.0,-999,0.00,,,0.02,,2013-04-01 01:23:00,
2013-03-31 18:33:00,38.0,-99.9,-100.00,North,-999,-999.0,-999.0,-999,0.00,,,0.02,,2013-04-01 01:33:00,